Regional Weather Roundup
Issued by NWS

Home | Current Version | Previous Version | Graphics & Text | Print | Product List | Glossary On
Versions: 1 2 3 4 5 6 7 8 9 10 11 12 13 14 15 16 17 18 19 20 21 22 23 24 25 26 27 28 29 30 31 32 33 34 35 36 37 38 39 40 41 42 43 44 45 46 47 48 49 50
676
ASUS43 KOAX 070410
RWRNE

WEATHER ROUNDUP FOR NEBRASKA
NATIONAL WEATHER SERVICE OMAHA NE
1000 PM CST TUE DEC 06 2016

NOTES: SATELLITE DATA IS BEING USED TO AUGMENT CLOUD COVER ABOVE
       12000 FEET.
       "FAIR" INDICATES FEW OR NO CLOUDS BELOW 12,000 FEET WITH NO
       SIGNIFICANT WEATHER AND/OR OBSTRUCTIONS TO VISIBILITY.

  * THESE STATIONS DO NOT REPORT WEATHER SUCH AS RAIN...SNOW OR FOG.

NEZ001>004-019>022-054>056-070500-
NEBRASKA PANHANDLE

CITY           SKY/WX    TMP DP  RH WIND       PRES   REMARKS
SCOTTSBLUFF    CLOUDY    17   2  51 N5        30.02R WCI  10
ALLIANCE       CLOUDY    13   4  67 N7        30.02R WCI   3
CHADRON        CLOUDY    10   1  67 W13       30.09R WCI  -5
KIMBALL        CLOUDY    20   9  60 E7        29.95R WCI  11
SIDNEY         CLOUDY    20   4  50 SE6       30.00R WCI  12
$$

NEZ057>060-069>072-079>082-070500-
SOUTHWEST NEBRASKA

CITY           SKY/WX    TMP DP  RH WIND       PRES   REMARKS
NORTH PLATTE   CLOUDY    21   6  52 CALM      30.09R
IMPERIAL       CLOUDY    24   6  46 CALM      30.04R
LEXINGTON      CLOUDY    25   7  47 NE9       30.10R WCI  15
MCCOOK         CLOUDY    25   9  50 NE3       30.07R
OGALLALA       CLOUDY    24   7  47 E3        30.05R
$$

NEZ005>010-023>029-035>040-094-070500-
NORTH CENTRAL NEBRASKA

CITY           SKY/WX    TMP DP  RH WIND       PRES   REMARKS
VALENTINE      CLOUDY     9  -1  64 NW12      30.11R WCI  -6
AINSWORTH      CLEAR     10   3  71 NW13      30.11R WCI  -5
BROKEN BOW     CLOUDY    20   7  57 N14       30.08R WCI   7
O`NEILL        CLEAR     14   6  70 NW16G23   30.12R WCI  -2
ORD            CLOUDY    19   5  54 N16G23    30.11R WCI   4
THEDFORD       CLOUDY    15   5  65 NW7       30.10R WCI   5
$$

NEZ041-046>049-061>064-073>077-083>087-070500-
SOUTH CENTRAL NEBRASKA

CITY           SKY/WX    TMP DP  RH WIND       PRES   REMARKS
GRAND ISLAND   CLOUDY    21   9  59 NW7       30.13R WCI  12
AURORA         CLOUDY    22  10  60 NW5       30.12S WCI  15
HASTINGS       PTCLDY    23  10  57 N6        30.13R WCI  16
HEBRON         MOCLDY    24  17  77 CALM      30.14R
HOLDREGE       MOCLDY    19   8  62 NE5       30.10R WCI  13
KEARNEY *      CLOUDY    23   7  50 N7        30.11S WCI  15
YORK           CLOUDY    23  10  58 NW8       30.13R WCI  14
$$

NEZ011>018-030>034-042>045-070500-
NORTHEAST NEBRASKA

CITY           SKY/WX    TMP DP  RH WIND       PRES   REMARKS
NORFOLK        PTCLDY    18   6  59 W17       30.10R WCI   3
ALBION         PTCLDY    19   8  61 NW13G18   30.12R WCI   6
BLAIR          CLEAR     23  12  62 W8        30.10R WCI  14
FREMONT        CLEAR     21  12  70 W8        30.13R WCI  11
TEKAMAH        CLEAR     22  10  60 NW16      30.12R WCI   8
WAYNE          PTCLDY    17   8  70 W12       30.10R WCI   4
$$

NEZ050>053-065>068-078-088>093-070500-
SOUTHEAST NEBRASKA

CITY           SKY/WX    TMP DP  RH WIND       PRES   REMARKS
LINCOLN        PTCLDY    26   8  46 W8        30.15R WCI  18
OMAHA EPPLEY   PTCLDY    24  10  55 NW10      30.12R WCI  14
BEATRICE       PTCLDY    21  15  78 NW3       30.14R
FALLS CITY     MOCLDY    25  16  68 NW7       30.14R WCI  17
NEBRASKA CITY  CLEAR     26   9  49 W7        30.13R WCI  18
PLATTSMOUTH    CLEAR     22   8  54 NW8       30.12R WCI  13
$$

NEZ044-045-051>053-067-070500-
OMAHA AREA

CITY           SKY/WX    TMP DP  RH WIND       PRES   REMARKS
OMAHA EPPLEY   PTCLDY    24  10  55 NW10      30.12R WCI  14
BLAIR          CLEAR     23  12  62 W8        30.10R WCI  14
FREMONT        CLEAR     21  12  70 W8        30.13R WCI  11
MILLARD        CLEAR     27  10  49 NW9       30.13R WCI  17
OFFUTT AFB     CLEAR     23  11  59 NW8       30.13R WCI  14
PLATTSMOUTH    CLEAR     22   8  54 NW8       30.12R WCI  13
WAHOO          FAIR      23  11  60 W7        30.13R WCI  14
$$




USA.gov is the U.S. government's official web portal to all federal, state and local government web resources and services.